星链-36084(STARLINK-36084)

导读 | 豆包AI

STARLINK-36084是美国SpaceX星链计划中的一颗卫星,于2025年12月31日发射入轨。作为星链星座组网的组成部分,它延续了星链卫星低轨道部署的特点,服务全球高速互联网接入服务,进一步补全星链星座的全球覆盖能力,强化该星座在通信、互联网服务领域的覆盖密度与服务稳定性。

Basic Information
目录编号:
66829
目录名称:
STARLINK-36084
国际标识:
2025-280J
轨道中心:
EARTH
卫星名称:
星链-36084
卫星全名:
星链-36084(STARLINK-36084)
卫星状态:
在轨 (已飞行148 天)
发射日期:
2025-12-02 UTC
国别 :
美国 (US)
星等 :
--
Orbit Information
数据来源 国际轨道数据 AOE轨道数据
星历时间 2026-04-28T22:25:10+0800
13小时前
查看轨道信息
2026-04-26T03:00:00+0800
3天前
查看轨道信息
半长轴 6950.182km 6950.077km
偏心率 0.0003888 0.0003448
轨道倾角 70.002° 70.002°
近地点辐角 268.875° 253.463°
升交点赤经 208.548° 215.629°
平近点角 91.196° 78.511°
近地点 569.342km 569.543km
远地点 574.748km 574.337km
周期 96.107分钟 96.105分钟
每日圈数 14.983338 14.983675
Detailed Information
固有亮度:
5
最大亮度:
2.5
卫星平台:
Starlink V1.0
覆盖范围:
全球
运营商:
太空探索技术公司
运营商所在国:
美国
制造商(研发单位):
太空探索技术公司
制造商所在国:
美国
使用方式:
暂无
Satellite Introduction
Starlink 计划是 SpaceX 推出的全球卫星互联网项目,通过发射低轨道卫星,为全球尤其是偏远地区提供高速、低延迟的互联网服务。自 2019 年起,Starlink 已部署数千颗卫星,旨在缩小全球数字鸿沟,推动互联网普及。该项目还为军事、航空等行业提供通信支持,带来广泛经济效益。
2D Orbit Map
3D Orbit Map
Orbit Altitude Analysis Chart
Orbit Inclination Analysis Chart
Orbit Comprehensive Analysis Chart
View Comprehensive Chart